This demonstration page uses our WeatherBlox Daily Observations layout. Learn more.

Left ArrowRight Arrow

Hourly Observations for December 21, 2020

Temp ( °F °C ) Dew Point ( °F °C ) Humidity (%) Winds ( mph kmh ) Pressure ( in mb ) Visibility ( mi km ) Precip ( " mm )
12:51 am 00:51 Clear 35 1.7 19 -7.2 52 52 SSE 5 7 30.13 1020 10 16.0934 0 0
1:51 am 01:51 Clear 33 0.6 19 -7.2 56 56 SE 3 6 30.12 1020 10 16.0934 0 0
2:51 am 02:51 Clear 35 1.7 18 -7.8 50 50 E 6 9 30.12 1020 10 16.0934 0 0
3:51 am 03:51 Clear 35 1.7 18 -7.8 50 50 SE 7 11 30.12 1020 10 16.0934 0 0
4:51 am 04:51 Clear 32 0 17 -8.3 54 54 Calm 30.12 1020 10 16.0934 0 0
5:51 am 05:51 Clear 29 -1.7 17 -8.3 61 61 Calm 30.16 1021 10 16.0934 0 0
6:51 am 06:51 Clear 30 -1.1 18 -7.8 61 61 E 5 7 30.18 1022 10 16.0934 0 0
7:51 am 07:51 Sunny 32 0 18 -7.8 56 56 ESE 6 9 30.19 1022 10 16.0934 0 0
8:51 am 08:51 Sunny 42 5.6 17 -8.3 36 36 SE 9 15 30.18 1022 10 16.0934 0 0
9:51 am 09:51 Sunny 49 9.4 17 -8.3 28 28 SSE 13 20 30.18 1022 10 16.0934 0 0
10:51 am 10:51 Sunny 54 12.2 18 -7.8 24 24 SE 9 15 30.16 1021 10 16.0934 0 0
11:51 am 11:51 Sunny 59 15 18 -7.8 20 20 SE 6 9 30.11 1020 10 16.0934 0 0
12:51 pm 12:51 Sunny 62 16.7 16 -8.9 17 17 ESE 7 11 30.06 1018 10 16.0934 0 0
1:51 pm 13:51 Sunny 64 17.8 16 -8.9 15 15 SSE 7 11 30.04 1017 10 16.0934 0 0
2:51 pm 14:51 Sunny 66 18.9 16 -8.9 14 14 SE 6 9 30.01 1016 10 16.0934 0 0
3:51 pm 15:51 Sunny 66 18.9 15 -9.4 14 14 SE 6 9 30.01 1016 10 16.0934 0 0
4:51 pm 16:51 Sunny 63 17.2 17 -8.3 17 17 S 5 7 30.02 1017 10 16.0934 0 0
5:51 pm 17:51 Clear 56 13.3 16 -8.9 21 21 ESE 3 6 30.04 1017 10 16.0934 0 0
6:51 pm 18:51 Clear 49 9.4 18 -7.8 29 29 ENE 5 7 30.07 1018 10 16.0934 0 0
7:51 pm 19:51 Clear 50 10 17 -8.3 27 27 E 8 13 30.08 1019 10 16.0934 0 0
8:51 pm 20:51 Clear 46 7.8 18 -7.8 32 32 ESE 7 11 30.07 1018 10 16.0934 0 0
9:51 pm 21:51 Clear 47 8.3 18 -7.8 31 31 ESE 8 13 30.07 1018 10 16.0934 0 0
10:51 pm 22:51 Clear 42 5.6 19 -7.2 40 40 SE 9 15 30.07 1018 10 16.0934 0 0
11:51 pm 23:51 Clear 41 5 18 -7.8 39 39 SE 7 11 30.07 1018 10 16.0934 0 0

Powered by AerisWeather